Home > Weather > Kuwait City > Past weeks

Flag for Kuwait Past Weather in Kuwait City, Kuwait — Yesterday and Last 2 Weeks

Now
97 °F

Clear.


Feels Like: 92 °F
Forecast: 90 / 107 °F
Wind: 10 mph from Northwest

Location: Kuwait International Airport

Current Time: Jul 24, 2016 at 2:07:54 AM

Latest Report: Jul 24, 2016 at 1:00 AM


Visibility: 10 mi

Pressure: 29.39 "Hg

Humidity: 14%

Dew Point: 41 °F

Location of Kuwait CityLocation

Past Weather in Kuwait City — Graph

°F

Kuwait City Temperature Yesterday

Maximum temperature yesterday: 117 °F (at 2:00 PM)
Minimum temperature yesterday: 99 °F (at 5:00 AM)
Average temperature yesterday: 107 °F

High & Low Weather Summary for the Past Weeks

 TemperatureHumidityPressure
High124 °F (Jul 21, 1:00 PM)53% (Jul 22, 2:00 AM)29.56 "Hg (Jul 22, 2:00 AM)
Low81 °F (Jul 14, 5:00 AM)5% (Jul 13, 3:59 PM)29.39 "Hg (Jul 17, 4:00 PM)
Average106 °F15%29.48 "Hg
* Reported Jul 9 12:00 AM — Jul 24 12:00 AM, Kuwait City, Weather by CustomWeather, © 2016

Note: Actual official high and low records may vary slightly from our data, if they occured in-between our weather recording intervals... More about our weather records

Advertising

Kuwait City Weather History for the Previous 24 Hours

Scroll right to see more
 ConditionsComfort  
Time TempWeatherWind HumidityBarometerVisibility
12:00 AM
Sun, Jul 24
100 °FClear.18 mph13%29.39 "Hg10 mi
11:00 PM
Sat, Jul 23
100 °FClear.15 mph13%29.42 "Hg10 mi
10:00 PM102 °FClear.18 mph11%29.42 "Hg4 mi
9:00 PM104 °FClear.16 mph9%29.42 "Hg4 mi
8:00 PM106 °FClear.14 mph9%29.42 "Hg2 mi
7:00 PM108 °FClear.21 mph9%29.39 "Hg1 mi
6:00 PM111 °FLow level haze.24 mph9%29.39 "Hg1 mi
5:00 PM113 °FLow level haze.25 mph8%29.39 "Hg1 mi
3:59 PM115 °FLow level haze.24 mph8%29.39 "Hg1 mi
3:00 PM117 °FLow level haze.22 mph9%29.42 "Hg2 mi
2:00 PM117 °FLow level haze.26 mph9%29.42 "Hg2 mi
1:00 PM115 °FLow level haze.29 mph11%29.45 "Hg2 mi
12:00 PM115 °FLow level haze.28 mph10%29.45 "Hg2 mi
11:00 AM113 °FLow level haze.26 mph11%29.45 "Hg2 mi
10:00 AM111 °FSunny.26 mph13%29.47 "Hg3 mi
9:00 AM108 °FLow level haze.22 mph17%29.47 "Hg3 mi
8:00 AM102 °FLow level haze.21 mph20%29.47 "Hg5 mi
7:00 AM100 °FSunny.22 mph21%29.47 "Hg10 mi
6:00 AM99 °FSunny.23 mph22%29.47 "Hg10 mi
5:00 AM99 °FClear.24 mph21%29.45 "Hg10 mi
4:00 AM100 °FClear.24 mph18%29.45 "Hg10 mi
2:00 AM102 °FClear.23 mph20%29.45 "Hg5 mi
Weather by CustomWeather, © 2016

See weather overviewHow to use our weather pages